Year,Month,Day,Hour,Minute,Value (Times are PST for temperature in C)
2018,11,27,08,50,9.30
2018,11,27,08,51,9.30
2018,11,27,08,52,9.40
2018,11,27,08,53,9.40
2018,11,27,08,54,9.50
2018,11,27,08,55,9.50
2018,11,27,08,56,9.50
2018,11,27,08,57,9.50
2018,11,27,08,58,9.60
2018,11,27,08,59,9.60
2018,11,27,09,00,9.60
2018,11,27,09,01,9.60
2018,11,27,09,02,9.70
2018,11,27,09,03,9.70
2018,11,27,09,04,9.70
2018,11,27,09,05,9.70
2018,11,27,09,06,9.70
2018,11,27,09,07,9.70
2018,11,27,09,08,9.70
2018,11,27,09,09,9.70
2018,11,27,09,10,9.70
2018,11,27,09,11,9.80
2018,11,27,09,12,9.80
2018,11,27,09,13,9.80
2018,11,27,09,14,9.90
2018,11,27,09,15,9.90
2018,11,27,09,16,9.90
2018,11,27,09,17,9.90
2018,11,27,09,18,9.90
2018,11,27,09,19,9.90
2018,11,27,09,20,9.90
2018,11,27,09,21,9.90
2018,11,27,09,22,9.90
2018,11,27,09,23,9.90
2018,11,27,09,24,9.90
2018,11,27,09,25,9.90
2018,11,27,09,26,9.90
2018,11,27,09,27,9.90
2018,11,27,09,28,9.90
2018,11,27,09,29,9.80
2018,11,27,09,30,9.90
2018,11,27,09,31,9.80
2018,11,27,09,32,9.80
2018,11,27,09,33,9.80
2018,11,27,09,34,9.80
2018,11,27,09,35,9.80
2018,11,27,09,36,9.80
2018,11,27,09,37,9.80
2018,11,27,09,38,9.90
2018,11,27,09,39,10.00
2018,11,27,09,40,10.00
2018,11,27,09,41,10.10
2018,11,27,09,42,10.20
2018,11,27,09,43,10.20
2018,11,27,09,44,10.20
2018,11,27,09,45,10.30
2018,11,27,09,46,10.30
2018,11,27,09,47,10.40
2018,11,27,09,48,10.40
2018,11,27,09,49,10.40
2018,11,27,09,50,10.50
2018,11,27,09,51,10.50
2018,11,27,09,52,10.60
2018,11,27,09,53,10.60
2018,11,27,09,54,10.70
2018,11,27,09,55,10.70
2018,11,27,09,56,10.70
2018,11,27,09,57,10.60
2018,11,27,09,58,10.60
2018,11,27,09,59,10.60
2018,11,27,10,00,10.70
2018,11,27,10,01,10.70
2018,11,27,10,02,10.80
2018,11,27,10,03,10.80
2018,11,27,10,04,10.80
2018,11,27,10,05,10.80
2018,11,27,10,06,10.80
2018,11,27,10,07,10.80
2018,11,27,10,08,10.70
2018,11,27,10,09,10.70
2018,11,27,10,10,10.70
2018,11,27,10,11,10.60
2018,11,27,10,12,10.60
2018,11,27,10,13,10.60
2018,11,27,10,14,10.60
2018,11,27,10,15,10.60
2018,11,27,10,16,10.60
2018,11,27,10,17,10.60
2018,11,27,10,18,10.60
2018,11,27,10,19,10.60
2018,11,27,10,20,10.60
2018,11,27,10,21,10.60
2018,11,27,10,22,10.60
2018,11,27,10,23,10.60
2018,11,27,10,24,10.60
2018,11,27,10,25,10.60
2018,11,27,10,26,10.60
2018,11,27,10,27,10.50
2018,11,27,10,28,10.40
2018,11,27,10,29,10.40
2018,11,27,10,30,10.40
2018,11,27,10,31,10.30
2018,11,27,10,32,10.30
2018,11,27,10,33,10.30
2018,11,27,10,34,10.30
2018,11,27,10,35,10.30
2018,11,27,10,36,10.30
2018,11,27,10,37,10.30
2018,11,27,10,38,10.30
2018,11,27,10,39,10.30
2018,11,27,10,40,10.30
2018,11,27,10,41,10.30
2018,11,27,10,42,10.30
2018,11,27,10,43,10.30
2018,11,27,10,44,10.30
2018,11,27,10,45,10.30
2018,11,27,10,46,10.30
2018,11,27,10,47,10.30
2018,11,27,10,48,10.30
2018,11,27,10,49,10.30
2018,11,27,10,50,10.30
2018,11,27,10,51,10.30
2018,11,27,10,52,10.30
2018,11,27,10,53,10.30
2018,11,27,10,54,10.30
2018,11,27,10,55,10.30
2018,11,27,10,56,10.30
2018,11,27,10,57,10.30
2018,11,27,10,58,10.30
2018,11,27,10,59,10.30
2018,11,27,11,00,10.30
2018,11,27,11,01,10.30
2018,11,27,11,02,10.20
2018,11,27,11,03,10.20
2018,11,27,11,04,10.20
2018,11,27,11,05,10.20
2018,11,27,11,06,10.20
2018,11,27,11,07,10.30
2018,11,27,11,08,10.30
2018,11,27,11,09,10.30
2018,11,27,11,10,10.30
2018,11,27,11,11,10.40
2018,11,27,11,12,10.40
2018,11,27,11,13,10.40
2018,11,27,11,14,10.40
2018,11,27,11,15,10.40
2018,11,27,11,16,10.40
2018,11,27,11,17,10.40
2018,11,27,11,18,10.40
2018,11,27,11,19,10.40
2018,11,27,11,20,10.50
2018,11,27,11,21,10.50
2018,11,27,11,22,10.50
2018,11,27,11,23,10.50
2018,11,27,11,24,10.50
2018,11,27,11,25,10.60
2018,11,27,11,26,10.50
2018,11,27,11,27,10.60
2018,11,27,11,28,10.50
2018,11,27,11,29,10.50
2018,11,27,11,30,10.50
2018,11,27,11,31,10.50
2018,11,27,11,32,10.50
2018,11,27,11,33,10.30
2018,11,27,11,34,10.20
2018,11,27,11,35,10.30
2018,11,27,11,36,10.30
2018,11,27,11,37,10.30
2018,11,27,11,38,10.30
2018,11,27,11,39,10.30
2018,11,27,11,40,10.30
2018,11,27,11,41,10.30
2018,11,27,11,42,10.30
2018,11,27,11,43,10.30
2018,11,27,11,44,10.30
2018,11,27,11,45,10.30
2018,11,27,11,46,10.30
2018,11,27,11,47,10.20
2018,11,27,11,48,10.20
2018,11,27,11,49,10.20
2018,11,27,11,50,10.20
2018,11,27,11,51,10.20
2018,11,27,11,52,10.20
2018,11,27,11,53,10.20
2018,11,27,11,54,10.20
2018,11,27,11,55,10.20
2018,11,27,11,56,10.20
2018,11,27,11,57,10.30
2018,11,27,11,58,10.30
2018,11,27,11,59,10.30
2018,11,27,12,00,10.30
2018,11,27,12,01,10.30
2018,11,27,12,02,10.30
2018,11,27,12,03,10.30
2018,11,27,12,04,10.30
2018,11,27,12,05,10.30
2018,11,27,12,06,10.30
2018,11,27,12,07,10.30
2018,11,27,12,08,10.30
2018,11,27,12,09,10.30
2018,11,27,12,10,10.30
2018,11,27,12,11,10.30
2018,11,27,12,12,10.30
2018,11,27,12,13,10.20
2018,11,27,12,14,10.20
2018,11,27,12,15,10.10
2018,11,27,12,16,10.10
2018,11,27,12,17,10.10
2018,11,27,12,18,10.10
2018,11,27,12,19,10.10
2018,11,27,12,20,10.10
2018,11,27,12,21,10.10
2018,11,27,12,22,10.10
2018,11,27,12,23,10.10
2018,11,27,12,24,10.10
2018,11,27,12,25,10.10
2018,11,27,12,26,10.10
2018,11,27,12,27,10.10
2018,11,27,12,28,10.10
2018,11,27,12,29,10.10
2018,11,27,12,30,10.10
2018,11,27,12,31,10.10
2018,11,27,12,32,10.10
2018,11,27,12,33,10.10
2018,11,27,12,34,10.10
2018,11,27,12,35,10.10
2018,11,27,12,36,10.00
2018,11,27,12,37,10.00
2018,11,27,12,38,9.90
2018,11,27,12,39,9.90
2018,11,27,12,40,9.90
2018,11,27,12,41,9.90
2018,11,27,12,42,9.90
2018,11,27,12,43,9.90
2018,11,27,12,44,9.80
2018,11,27,12,45,9.80
2018,11,27,12,46,9.80
2018,11,27,12,47,9.80
2018,11,27,12,48,9.80
2018,11,27,12,49,9.80
2018,11,27,12,50,9.80
2018,11,27,12,51,9.80
2018,11,27,12,52,9.70
2018,11,27,12,53,9.70
2018,11,27,12,54,9.70
2018,11,27,12,55,9.70
2018,11,27,12,56,9.70
2018,11,27,12,57,9.70
2018,11,27,12,58,9.60
2018,11,27,12,59,9.60
2018,11,27,13,00,9.60
2018,11,27,13,01,9.60
2018,11,27,13,02,9.70
2018,11,27,13,03,9.70
2018,11,27,13,04,9.70
2018,11,27,13,05,9.70
2018,11,27,13,06,9.70
2018,11,27,13,07,9.70
2018,11,27,13,08,9.70
2018,11,27,13,09,9.70
2018,11,27,13,10,9.70
2018,11,27,13,11,9.70
2018,11,27,13,12,9.70
2018,11,27,13,13,9.70
2018,11,27,13,14,9.70
2018,11,27,13,15,9.70
2018,11,27,13,16,9.80
2018,11,27,13,17,9.80
2018,11,27,13,18,9.80
2018,11,27,13,19,9.80
2018,11,27,13,20,9.90
2018,11,27,13,21,9.90
2018,11,27,13,22,10.00
2018,11,27,13,23,10.00
2018,11,27,13,24,10.00
2018,11,27,13,25,10.00
2018,11,27,13,26,10.00
2018,11,27,13,27,10.00
2018,11,27,13,28,10.00
2018,11,27,13,29,10.00
2018,11,27,13,30,10.10
2018,11,27,13,31,10.10
2018,11,27,13,32,10.10
2018,11,27,13,33,10.10
2018,11,27,13,34,10.10
2018,11,27,13,35,10.20
2018,11,27,13,36,10.20
2018,11,27,13,37,10.20
2018,11,27,13,38,10.20
2018,11,27,13,39,10.20
2018,11,27,13,40,10.20
2018,11,27,13,41,10.20
2018,11,27,13,42,10.10
2018,11,27,13,43,10.10
2018,11,27,13,44,9.90
2018,11,27,13,45,9.90
2018,11,27,13,46,9.90
2018,11,27,13,47,9.80
2018,11,27,13,48,9.80
2018,11,27,13,49,9.70
2018,11,27,13,50,9.70
2018,11,27,13,51,9.70
2018,11,27,13,52,9.70
2018,11,27,13,53,9.70
2018,11,27,13,54,9.70
2018,11,27,13,55,9.70
2018,11,27,13,56,9.60
2018,11,27,13,57,9.60
2018,11,27,13,58,9.60
2018,11,27,13,59,9.60
2018,11,27,14,00,9.60
2018,11,27,14,01,9.60
2018,11,27,14,02,9.60
2018,11,27,14,03,9.60
2018,11,27,14,04,9.60
2018,11,27,14,05,9.60
2018,11,27,14,06,9.60
2018,11,27,14,07,9.60
2018,11,27,14,08,9.60
2018,11,27,14,09,9.60
2018,11,27,14,10,9.60
2018,11,27,14,11,9.60
2018,11,27,14,12,9.60
2018,11,27,14,13,9.60
2018,11,27,14,14,9.60
2018,11,27,14,15,9.60
2018,11,27,14,16,9.60
2018,11,27,14,17,9.50
2018,11,27,14,18,9.50
2018,11,27,14,19,9.50
2018,11,27,14,20,9.40
2018,11,27,14,21,9.40
2018,11,27,14,22,9.40
2018,11,27,14,23,9.40
2018,11,27,14,24,9.40
2018,11,27,14,25,9.40
2018,11,27,14,26,9.40
2018,11,27,14,27,9.40
2018,11,27,14,28,9.40
2018,11,27,14,29,9.40
2018,11,27,14,30,9.30
2018,11,27,14,31,9.30
2018,11,27,14,32,9.30
2018,11,27,14,33,9.30
2018,11,27,14,34,9.30
2018,11,27,14,35,9.30
2018,11,27,14,36,9.30
2018,11,27,14,37,9.30
2018,11,27,14,38,9.20
2018,11,27,14,39,9.20
2018,11,27,14,40,9.20
2018,11,27,14,41,9.20
2018,11,27,14,42,9.20
2018,11,27,14,43,9.20
2018,11,27,14,44,9.10
2018,11,27,14,45,9.10
2018,11,27,14,46,9.10
2018,11,27,14,47,9.10
2018,11,27,14,48,9.10
2018,11,27,14,49,9.00
2018,11,27,14,50,9.00
2018,11,27,14,51,9.00
2018,11,27,14,52,9.00
2018,11,27,14,53,8.90
2018,11,27,14,54,8.90
2018,11,27,14,55,8.90
2018,11,27,14,56,8.90
2018,11,27,14,57,8.90
2018,11,27,14,58,8.90
2018,11,27,14,59,8.90
2018,11,27,15,00,8.90
2018,11,27,15,01,8.90
2018,11,27,15,02,8.90
2018,11,27,15,03,8.90
2018,11,27,15,04,8.90
2018,11,27,15,05,8.90
2018,11,27,15,06,8.80
2018,11,27,15,07,8.80
2018,11,27,15,08,8.80
2018,11,27,15,09,8.80
2018,11,27,15,10,8.80
2018,11,27,15,11,8.80
2018,11,27,15,12,8.80
2018,11,27,15,13,8.80
2018,11,27,15,14,8.70
2018,11,27,15,15,8.70
2018,11,27,15,16,8.70
2018,11,27,15,17,8.70
2018,11,27,15,18,8.70
2018,11,27,15,19,8.70
2018,11,27,15,20,8.70
2018,11,27,15,21,8.70
2018,11,27,15,22,8.70
2018,11,27,15,23,8.70
2018,11,27,15,24,8.70
2018,11,27,15,25,8.70
2018,11,27,15,26,8.70
2018,11,27,15,27,8.70
2018,11,27,15,28,8.70
2018,11,27,15,29,8.70
2018,11,27,15,30,8.70
2018,11,27,15,31,8.70
2018,11,27,15,32,8.70
2018,11,27,15,33,8.70
2018,11,27,15,34,8.70
2018,11,27,15,35,8.70
2018,11,27,15,36,8.70
2018,11,27,15,37,8.60
2018,11,27,15,38,8.60
2018,11,27,15,39,8.60
2018,11,27,15,40,8.60
2018,11,27,15,41,8.60
2018,11,27,15,42,8.60
2018,11,27,15,43,8.60
2018,11,27,15,44,8.60
2018,11,27,15,45,8.60
2018,11,27,15,46,8.60
2018,11,27,15,47,8.60
2018,11,27,15,48,8.60
2018,11,27,15,49,8.60
2018,11,27,15,50,8.60
2018,11,27,15,51,8.60
2018,11,27,15,52,8.60
2018,11,27,15,53,8.60
2018,11,27,15,54,8.50
2018,11,27,15,55,8.50
2018,11,27,15,56,8.50
2018,11,27,15,57,8.50
2018,11,27,15,58,8.50
2018,11,27,15,59,8.50
2018,11,27,16,00,8.40
2018,11,27,16,01,8.40
2018,11,27,16,02,8.40
2018,11,27,16,03,8.40
2018,11,27,16,04,8.40
2018,11,27,16,05,8.40
2018,11,27,16,06,8.40
2018,11,27,16,07,8.40
2018,11,27,16,08,8.40
2018,11,27,16,09,8.40
2018,11,27,16,10,8.40
2018,11,27,16,11,8.40
2018,11,27,16,12,8.30
2018,11,27,16,13,8.30
2018,11,27,16,14,8.30
2018,11,27,16,15,8.30
2018,11,27,16,16,8.30
2018,11,27,16,17,8.30
2018,11,27,16,18,8.30
2018,11,27,16,19,8.30
2018,11,27,16,20,8.30
2018,11,27,16,21,8.30
2018,11,27,16,22,8.20
2018,11,27,16,23,8.20
2018,11,27,16,24,8.30
2018,11,27,16,25,8.30
2018,11,27,16,26,8.20
2018,11,27,16,27,8.30
2018,11,27,16,28,8.20
2018,11,27,16,29,8.20
2018,11,27,16,30,8.20
2018,11,27,16,31,8.20
2018,11,27,16,32,8.20
2018,11,27,16,33,8.20
2018,11,27,16,34,8.20
2018,11,27,16,35,8.20
2018,11,27,16,36,8.20
2018,11,27,16,37,8.20
2018,11,27,16,38,8.20
2018,11,27,16,39,8.20
2018,11,27,16,40,8.20
2018,11,27,16,41,8.20
2018,11,27,16,42,8.20
2018,11,27,16,43,8.20
2018,11,27,16,44,8.20
2018,11,27,16,45,8.20
2018,11,27,16,46,8.10
2018,11,27,16,47,8.10
2018,11,27,16,48,8.10
2018,11,27,16,49,8.10
2018,11,27,16,50,8.10
2018,11,27,16,51,8.10
2018,11,27,16,52,8.10
2018,11,27,16,53,8.10
2018,11,27,16,54,8.10
2018,11,27,16,55,8.10
2018,11,27,16,56,8.10
2018,11,27,16,57,8.00
2018,11,27,16,58,8.00
2018,11,27,16,59,8.00
2018,11,27,17,00,8.00
2018,11,27,17,01,8.00
2018,11,27,17,02,8.00
2018,11,27,17,03,8.00
2018,11,27,17,04,8.00
2018,11,27,17,05,7.90
2018,11,27,17,06,7.90
2018,11,27,17,07,7.90
2018,11,27,17,08,7.90
2018,11,27,17,09,7.90
2018,11,27,17,10,7.90
2018,11,27,17,11,7.90
2018,11,27,17,12,7.90
2018,11,27,17,13,7.90
2018,11,27,17,14,7.90
2018,11,27,17,15,7.90
2018,11,27,17,16,7.90
2018,11,27,17,17,7.90
2018,11,27,17,18,7.90
2018,11,27,17,19,7.80
2018,11,27,17,20,7.80
2018,11,27,17,21,7.80
2018,11,27,17,22,7.80
2018,11,27,17,23,7.80
2018,11,27,17,24,7.80
2018,11,27,17,25,7.80
2018,11,27,17,26,7.80
2018,11,27,17,27,7.80
2018,11,27,17,28,7.80
2018,11,27,17,29,7.80
2018,11,27,17,30,7.80
2018,11,27,17,31,7.80
2018,11,27,17,32,7.80
2018,11,27,17,33,7.80
2018,11,27,17,34,7.70
2018,11,27,17,35,7.70
2018,11,27,17,36,7.70
2018,11,27,17,37,7.70
2018,11,27,17,38,7.70
2018,11,27,17,39,7.70
2018,11,27,17,40,7.70
2018,11,27,17,41,7.70
2018,11,27,17,42,7.70
2018,11,27,17,43,7.70
2018,11,27,17,44,7.70
2018,11,27,17,45,7.70
2018,11,27,17,46,7.70
2018,11,27,17,47,7.70
2018,11,27,17,48,7.70
2018,11,27,17,49,7.70
2018,11,27,17,50,7.70
2018,11,27,17,51,7.70
2018,11,27,17,52,7.70
2018,11,27,17,53,7.70
2018,11,27,17,54,7.70
2018,11,27,17,55,7.70
2018,11,27,17,56,7.70
2018,11,27,17,57,7.70
2018,11,27,17,58,7.70
2018,11,27,17,59,7.70
2018,11,27,18,00,7.70
2018,11,27,18,01,7.70
2018,11,27,18,02,7.70
2018,11,27,18,03,7.70
2018,11,27,18,04,7.70
2018,11,27,18,05,7.70
2018,11,27,18,06,7.70
2018,11,27,18,07,7.70
2018,11,27,18,08,7.70
2018,11,27,18,09,7.70
2018,11,27,18,10,7.70
2018,11,27,18,11,7.70
2018,11,27,18,12,7.70
2018,11,27,18,13,7.70
2018,11,27,18,14,7.70
2018,11,27,18,15,7.70
2018,11,27,18,16,7.70
2018,11,27,18,17,7.70
2018,11,27,18,18,7.70
2018,11,27,18,19,7.70
2018,11,27,18,20,7.70
2018,11,27,18,21,7.70
2018,11,27,18,22,7.60
2018,11,27,18,23,7.60
2018,11,27,18,24,7.60
2018,11,27,18,25,7.60
2018,11,27,18,26,7.60
2018,11,27,18,27,7.60
2018,11,27,18,28,7.60
2018,11,27,18,29,7.60
2018,11,27,18,30,7.60
2018,11,27,18,31,7.60
2018,11,27,18,32,7.60
2018,11,27,18,33,7.60
2018,11,27,18,34,7.60
2018,11,27,18,35,7.60
2018,11,27,18,36,7.50
2018,11,27,18,37,7.50
2018,11,27,18,38,7.50
2018,11,27,18,39,7.40
2018,11,27,18,40,7.40
2018,11,27,18,41,7.40
2018,11,27,18,42,7.40
2018,11,27,18,43,7.40
2018,11,27,18,44,7.40
2018,11,27,18,45,7.40
2018,11,27,18,46,7.40
2018,11,27,18,47,7.40
2018,11,27,18,48,7.40
2018,11,27,18,49,7.40
2018,11,27,18,50,7.40
2018,11,27,18,51,7.40
2018,11,27,18,52,7.40
2018,11,27,18,53,7.40
2018,11,27,18,54,7.30
2018,11,27,18,55,7.30
2018,11,27,18,56,7.30
2018,11,27,18,57,7.30
2018,11,27,18,58,7.30
2018,11,27,18,59,7.30
2018,11,27,19,00,7.30
2018,11,27,19,01,7.30
2018,11,27,19,02,7.30
2018,11,27,19,03,7.30
2018,11,27,19,04,7.30
2018,11,27,19,05,7.30
2018,11,27,19,06,7.30
2018,11,27,19,07,7.30
2018,11,27,19,08,7.30
2018,11,27,19,09,7.30
2018,11,27,19,10,7.30
2018,11,27,19,11,7.20
2018,11,27,19,12,7.20
2018,11,27,19,13,7.20
2018,11,27,19,14,7.20
2018,11,27,19,15,7.20
2018,11,27,19,16,7.20
2018,11,27,19,17,7.20
2018,11,27,19,18,7.20
2018,11,27,19,19,7.20
2018,11,27,19,20,7.20
2018,11,27,19,21,7.20
2018,11,27,19,22,7.20
2018,11,27,19,23,7.20
2018,11,27,19,24,7.20
2018,11,27,19,25,7.20
2018,11,27,19,26,7.20
2018,11,27,19,27,7.20
2018,11,27,19,28,7.20
2018,11,27,19,29,7.20
2018,11,27,19,30,7.20
2018,11,27,19,31,7.20
2018,11,27,19,32,7.20
2018,11,27,19,33,7.20
2018,11,27,19,34,7.20
2018,11,27,19,35,7.20
2018,11,27,19,36,7.20
2018,11,27,19,37,7.20
2018,11,27,19,38,7.20
2018,11,27,19,39,7.20
2018,11,27,19,40,7.20
2018,11,27,19,41,7.20
2018,11,27,19,42,7.20
2018,11,27,19,43,7.20
2018,11,27,19,44,7.20
2018,11,27,19,45,7.20
2018,11,27,19,46,7.20
2018,11,27,19,47,7.20
2018,11,27,19,48,7.20
2018,11,27,19,49,7.20
2018,11,27,19,50,7.20
2018,11,27,19,51,7.20
2018,11,27,19,52,7.20
2018,11,27,19,53,7.20
2018,11,27,19,54,7.20
2018,11,27,19,55,7.20
2018,11,27,19,56,7.20
2018,11,27,19,57,7.20
2018,11,27,19,58,7.20
2018,11,27,19,59,7.20
2018,11,27,20,00,7.20
2018,11,27,20,01,7.20
2018,11,27,20,02,7.20
2018,11,27,20,03,7.20
2018,11,27,20,04,7.20
2018,11,27,20,05,7.20
2018,11,27,20,06,7.20
2018,11,27,20,07,7.20
2018,11,27,20,08,7.20
2018,11,27,20,09,7.20
2018,11,27,20,10,7.20
2018,11,27,20,11,7.20
2018,11,27,20,12,7.20
2018,11,27,20,13,7.20
2018,11,27,20,14,7.20
2018,11,27,20,15,7.20
2018,11,27,20,16,7.20
2018,11,27,20,17,7.20
2018,11,27,20,18,7.20
2018,11,27,20,19,7.20
2018,11,27,20,20,7.20
2018,11,27,20,21,7.20
2018,11,27,20,22,7.20
2018,11,27,20,23,7.20
2018,11,27,20,24,7.20
2018,11,27,20,25,7.20
2018,11,27,20,26,7.20
2018,11,27,20,27,7.20
2018,11,27,20,28,7.20
2018,11,27,20,29,7.20
2018,11,27,20,30,7.20
2018,11,27,20,31,7.20
2018,11,27,20,32,7.20
2018,11,27,20,33,7.20
2018,11,27,20,34,7.20
2018,11,27,20,35,7.20
2018,11,27,20,36,7.20
2018,11,27,20,37,7.20
2018,11,27,20,38,7.20
2018,11,27,20,39,7.20
2018,11,27,20,40,7.20
2018,11,27,20,41,7.20
2018,11,27,20,42,7.20
2018,11,27,20,43,7.20
2018,11,27,20,44,7.20
2018,11,27,20,45,7.20
2018,11,27,20,46,7.20
2018,11,27,20,47,7.20
2018,11,27,20,48,7.20
2018,11,27,20,49,7.20
2018,11,27,20,50,7.20
2018,11,27,20,51,7.20
2018,11,27,20,52,7.20
2018,11,27,20,53,7.20
2018,11,27,20,54,7.20
2018,11,27,20,55,7.20
2018,11,27,20,56,7.20
2018,11,27,20,57,7.20
2018,11,27,20,58,7.20
2018,11,27,20,59,7.20
2018,11,27,21,00,7.20
2018,11,27,21,01,7.10
2018,11,27,21,02,7.10
2018,11,27,21,03,7.10
2018,11,27,21,04,7.10
2018,11,27,21,05,7.10
2018,11,27,21,06,7.10
2018,11,27,21,07,7.10
2018,11,27,21,08,7.10
2018,11,27,21,09,7.10
2018,11,27,21,10,7.10
2018,11,27,21,11,7.10
2018,11,27,21,12,7.10
2018,11,27,21,13,7.10
2018,11,27,21,14,7.10
2018,11,27,21,15,7.10
2018,11,27,21,16,7.00
2018,11,27,21,17,7.00
2018,11,27,21,18,7.00
2018,11,27,21,19,7.00
2018,11,27,21,20,7.00
2018,11,27,21,21,7.00
2018,11,27,21,22,7.00
2018,11,27,21,23,6.90
2018,11,27,21,24,6.90
2018,11,27,21,25,6.90
2018,11,27,21,26,6.90
2018,11,27,21,27,6.90
2018,11,27,21,28,6.90
2018,11,27,21,29,6.90
2018,11,27,21,30,6.90
2018,11,27,21,31,6.80
2018,11,27,21,32,6.80
2018,11,27,21,33,6.80
2018,11,27,21,34,6.80
2018,11,27,21,35,6.80
2018,11,27,21,36,6.80
2018,11,27,21,37,6.80
2018,11,27,21,38,6.70
2018,11,27,21,39,6.70
2018,11,27,21,40,6.70
2018,11,27,21,41,6.70
2018,11,27,21,42,6.70
2018,11,27,21,43,6.70
2018,11,27,21,44,6.70
2018,11,27,21,45,6.70
2018,11,27,21,46,6.70
2018,11,27,21,47,6.80
2018,11,27,21,48,6.80
2018,11,27,21,49,6.80
2018,11,27,21,50,6.80
2018,11,27,21,51,6.80
2018,11,27,21,52,6.80
2018,11,27,21,53,6.80
2018,11,27,21,54,6.80
2018,11,27,21,55,6.80
2018,11,27,21,56,6.80
2018,11,27,21,57,6.80
2018,11,27,21,58,6.80
2018,11,27,21,59,6.80
2018,11,27,22,00,6.80
2018,11,27,22,01,6.80
2018,11,27,22,02,6.80
2018,11,27,22,03,6.80
2018,11,27,22,04,6.80
2018,11,27,22,05,6.80
2018,11,27,22,06,6.80
2018,11,27,22,07,6.80
2018,11,27,22,08,6.80
2018,11,27,22,09,6.80
2018,11,27,22,10,6.80
2018,11,27,22,11,6.80
2018,11,27,22,12,6.80
2018,11,27,22,13,6.80
2018,11,27,22,14,6.80
2018,11,27,22,15,6.80
2018,11,27,22,16,6.80
2018,11,27,22,17,6.80
2018,11,27,22,18,6.80
2018,11,27,22,19,6.70
2018,11,27,22,20,6.70
2018,11,27,22,21,6.70
2018,11,27,22,22,6.70
2018,11,27,22,23,6.70
2018,11,27,22,24,6.80
2018,11,27,22,25,6.80
2018,11,27,22,26,6.80
2018,11,27,22,27,6.80
2018,11,27,22,28,6.80
2018,11,27,22,29,6.80
2018,11,27,22,30,6.80
2018,11,27,22,31,6.80
2018,11,27,22,32,6.80
2018,11,27,22,33,6.80
2018,11,27,22,34,6.80
2018,11,27,22,35,6.80
2018,11,27,22,36,6.80
2018,11,27,22,37,6.80
2018,11,27,22,38,6.80
2018,11,27,22,39,6.80
2018,11,27,22,40,6.80
2018,11,27,22,41,6.80
2018,11,27,22,42,6.80
2018,11,27,22,43,6.80
2018,11,27,22,44,6.90
2018,11,27,22,45,6.90
2018,11,27,22,46,6.90
2018,11,27,22,47,6.90
2018,11,27,22,48,6.90
2018,11,27,22,49,6.90
2018,11,27,22,50,6.90
2018,11,27,22,51,6.90
2018,11,27,22,52,6.90
2018,11,27,22,53,6.90
2018,11,27,22,54,6.90
2018,11,27,22,55,6.90
2018,11,27,22,56,6.90
2018,11,27,22,57,7.00
2018,11,27,22,58,7.00
2018,11,27,22,59,7.00
2018,11,27,23,00,7.00
2018,11,27,23,01,7.00
2018,11,27,23,02,6.90
2018,11,27,23,03,6.90
2018,11,27,23,04,6.90
2018,11,27,23,05,6.90
2018,11,27,23,06,6.90
2018,11,27,23,07,6.90
2018,11,27,23,08,6.90
2018,11,27,23,09,6.90
2018,11,27,23,10,6.90
2018,11,27,23,11,7.00
2018,11,27,23,12,7.00
2018,11,27,23,13,7.00
2018,11,27,23,14,7.00
2018,11,27,23,15,7.00
2018,11,27,23,16,7.00
2018,11,27,23,17,7.00
2018,11,27,23,18,7.00
2018,11,27,23,19,7.00
2018,11,27,23,20,6.90
2018,11,27,23,21,6.90
2018,11,27,23,22,6.90
2018,11,27,23,23,6.90
2018,11,27,23,24,6.90
2018,11,27,23,25,6.90
2018,11,27,23,26,6.90
2018,11,27,23,27,6.90
2018,11,27,23,28,6.90
2018,11,27,23,29,6.90
2018,11,27,23,30,7.00
2018,11,27,23,31,7.00
2018,11,27,23,32,7.00
2018,11,27,23,33,7.10
2018,11,27,23,34,7.10
2018,11,27,23,35,7.10
2018,11,27,23,36,7.10
2018,11,27,23,37,7.10
2018,11,27,23,38,7.10
2018,11,27,23,39,7.10
2018,11,27,23,40,7.10
2018,11,27,23,41,7.10
2018,11,27,23,42,7.10
2018,11,27,23,43,7.10
2018,11,27,23,44,7.10
2018,11,27,23,45,7.10
2018,11,27,23,46,7.10
2018,11,27,23,47,7.10
2018,11,27,23,48,7.10
2018,11,27,23,49,7.10
2018,11,27,23,50,7.00
2018,11,27,23,51,7.00
2018,11,27,23,52,7.00
2018,11,27,23,53,7.00
2018,11,27,23,54,7.00
2018,11,27,23,55,6.90
2018,11,27,23,56,6.90
2018,11,27,23,57,6.90
2018,11,27,23,58,6.90
2018,11,27,23,59,6.90
